Probability
0 0 0 0 0 0 0 3 0 6 16 19 32 32 32 39 42 39 42 32 42 48 52 58 61 65 58 55 61 55 61 61 65 61 61 52 48 55 55 48 42 42 45 52
0 0 0 0 0 0 0 0 0 6 19 23 29 29 35 42 39 42 42 45 48 55 52 61 58 61 61 58 61 65 61 55 55 55 55 45 45 45 39 42 42 42 45 35
0 0 0 0 0 0 0 0 3 13 16 26 26 32 35 42 39 42 39 39 48 55 58 55 52 61 65 52 55 55 55 55 55 39 35 35 32 32 35 32 39 45 42 39
0 0 0 3 0 0 3 6 10 13 19 23 23 32 32 35 39 35 32 42 45 39 39 45 39 45 52 45 42 52 52 48 45 42 35 35 32 32 35 39 35 35 39 35
0 0 0 0 0 0 10 16 19 16 16 16 26 26 32 35 35 45 39 39 39 29 32 42 39 45 45 42 39 39 45 48 42 35 35 32 29 35 39 42 39 35 32 35
0 0 3 0 0 6 10 19 19 19 19 23 26 23 29 32 42 45 42 35 35 32 39 39 42 45 42 45 42 39 42 42 42 35 35 29 29 32 29 32 35 35 32 32
0 0 0 0 0 10 13 16 19 23 26 26 42 35 32 32 42 39 39 35 32 39 39 39 45 45 39 42 39 35 35 35 35 29 32 29 26 29 29 29 32 35 32 32
6 6 0 3 6 16 29 32 23 26 29 35 42 35 35 32 39 39 35 32 35 39 42 39 39 42 35 35 32 32 32 29 29 29 29 23 26 29 26 26 26 26 26 32
13 10 26 10 16 29 29 29 23 26 23 29 29 39 35 32 32 35 32 23 29 32 29 29 35 39 32 32 32 32 29 29 29 26 23 26 26 23 23 19 23 23 23 23
32 13 16 13 13 6 13 16 10 16 19 23 32 35 39 35 35 32 26 26 26 23 26 32 32 29 32 29 29 26 26 29 29 23 23 26 23 26 26 19 16 19 19 19
35 26 16 13 13 10 13 16 10 16 19 23 26 39 35 35 32 29 29 26 26 32 29 26 29 26 23 26 26 26 26 26 29 29 26 32 23 23 23 26 16 19 16 13
16 16 6 10 6 6 16 13 10 10 13 13 19 26 32 29 29 29 29 32 32 26 26 19 19 19 19 19 23 19 16 16 19 19 26 26 19 19 10 10 6 3 3 3
6 0 3 6 3 3 6 6 6 10 10 19 23 26 32 29 29 26 26 29 29 23 19 16 16 23 23 19 23 23 19 16 16 19 23 23 19 16 13 6 3 3 0 0
16 13 13 6 6 6 6 6 6 6 10 16 19 23 16 23 26 23 19 19 26 16 13 13 13 16 19 16 19 23 16 16 16 19 16 16 16 13 10 6 10 6 0 0
10 16 13 10 13 3 3 6 6 6 10 16 10 16 16 19 19 13 16 13 13 13 13 10 13 16 13 13 16 19 16 16 16 16 16 16 13 13 6 3 3 0 3 0
6 10 10 16 16 6 6 6 6 10 13 10 10 13 13 13 16 13 13 16 16 10 13 10 6 6 10 13 16 19 13 10 6 16 13 13 10 6 3 3 3 0 0 0
6 6 19 19 10 10 10 10 10 3 6 6 10 10 6 10 13 13 10 10 13 16 16 13 10 10 6 10 10 10 10 6 3 6 6 3 3 0 0 0 0 0 0 0
3 3 16 19 13 10 6 6 6 6 6 3 6 6 6 13 13 13 10 10 10 13 16 10 10 10 10 6 6 3 6 6 6 3 3 0 0 0 0 0 0 0 3 3
6 6 10 13 10 6 6 3 3 3 6 3 3 6 10 10 16 10 10 10 10 16 16 13 3 6 6 6 0 3 0 3 3 3 3 0 0 0 0 0 3 3 3 3
10 10 10 10 10 6 6 6 3 3 3 3 3 10 10 10 10 10 13 10 10 10 10 6 6 6 6 3 3 0 0 3 3 3 3 6 3 0 3 3 3 0 0 0
10 10 10 6 10 10 10 10 6 6 6 6 10 10 10 10 10 13 16 10 13 10 6 3 6 6 3 3 0 3 0 3 3 3 3 3 3 3 3 3 3 0 0 0
10 10 6 6 10 10 13 13 10 6 6 6 6 6 10 13 10 13 13 13 10 0 0 3 6 3 3 0 3 3 3 0 3 3 3 3 3 3 3 3 3 3 0 0
10 13 16 16 16 10 10 13 10 13 13 10 10 10 10 10 6 6 6 6 6 0 0 0 0 0 0 0 3 3 0 0 0 0 3 3 3 3 3 3 3 3 3 3
13 10 10 13 13 16 16 16 13 13 13 10 6 10 6 6 10 10 6 0 0 0 0 0 0 0 0 3 3 3 3 3 0 0 0 3 3 3 3 3 3 3 3 3
10 6 13 13 13 16 16 16 13 13 10 10 10 6 3 3 6 3 0 0 0 0 0 0 0 0 0 0 0 3 3 0 0 0 0 0 0 3 3 3 3 3 3 3
10 10 10 13 19 19 10 10 6 6 3 3 3 3 6 6 3 3 6 0 0 0 0 0 3 0 0 0 0 0 0 0 0 0 0 0 0 0 0 3 0 3 3 3
10 10 13 10 6 3 3 3 3 3 3 3 3 3 3 3 6 0 0 0 0 0 0 0 0 0 0 0 0 0 0 0 0 0 0 0 0 0 0 3 3 0 0 0
Height
5878 5880 5883 5885 5887 5889 5891 5892 5892 5892 5892 5893 5893 5893 5894 5893 5893 5893 5892 5891 5890 5889 5888 5887 5886 5885 5884 5882 5880 5878 5877 5875 5873 5871 5868 5866 5864 5862 5859 5857 5854 5852 5850 5848
5873 5875 5878 5879 5881 5884 5886 5887 5888 5889 5888 5888 5888 5889 5889 5889 5889 5889 5888 5887 5886 5885 5884 5883 5882 5881 5880 5878 5876 5874 5872 5870 5868 5866 5864 5861 5859 5857 5854 5852 5850 5847 5845 5843
5868 5871 5873 5875 5878 5879 5880 5881 5883 5883 5884 5884 5884 5884 5883 5884 5884 5884 5884 5883 5882 5881 5880 5879 5878 5876 5875 5873 5871 5869 5867 5865 5863 5861 5859 5857 5854 5852 5849 5847 5844 5842 5840 5838
5863 5867 5868 5872 5873 5874 5877 5877 5878 5878 5878 5878 5879 5878 5878 5879 5879 5879 5879 5878 5877 5876 5875 5874 5872 5871 5869 5867 5865 5863 5861 5859 5857 5855 5853 5851 5848 5846 5843 5841 5839 5836 5834 5831
5858 5860 5862 5865 5867 5869 5870 5871 5873 5873 5873 5872 5872 5873 5873 5873 5873 5873 5873 5872 5871 5870 5869 5868 5867 5865 5863 5861 5859 5857 5856 5854 5851 5849 5847 5844 5842 5839 5837 5835 5832 5830 5827 5825
5852 5855 5857 5860 5861 5862 5865 5864 5866 5867 5868 5868 5868 5868 5867 5868 5868 5867 5866 5866 5865 5864 5863 5862 5860 5858 5856 5855 5853 5851 5849 5847 5845 5842 5840 5837 5835 5832 5830 5827 5825 5822 5820 5818
5846 5848 5850 5853 5855 5857 5859 5859 5859 5860 5861 5861 5861 5862 5862 5861 5861 5860 5860 5859 5859 5858 5857 5856 5854 5851 5849 5847 5846 5844 5842 5840 5837 5835 5833 5830 5828 5825 5822 5819 5817 5815 5812 5810
5840 5843 5845 5846 5848 5850 5850 5851 5853 5853 5854 5854 5855 5854 5855 5854 5854 5853 5853 5853 5852 5851 5850 5849 5847 5845 5842 5840 5839 5837 5835 5833 5830 5828 5825 5823 5820 5817 5814 5811 5809 5807 5804 5802
5834 5837 5838 5839 5840 5842 5844 5846 5847 5847 5848 5848 5848 5848 5848 5848 5848 5847 5847 5846 5845 5844 5843 5842 5840 5838 5836 5834 5831 5829 5827 5825 5822 5820 5817 5815 5812 5809 5807 5804 5802 5799 5797 5794
5827 5829 5831 5832 5833 5835 5837 5839 5840 5841 5841 5842 5842 5841 5841 5841 5841 5840 5840 5839 5838 5837 5835 5834 5833 5831 5829 5826 5824 5821 5819 5816 5814 5811 5809 5807 5804 5802 5799 5797 5794 5791 5788 5786
5820 5823 5824 5825 5827 5828 5831 5832 5834 5834 5834 5835 5835 5834 5834 5833 5833 5832 5832 5831 5830 5829 5827 5826 5824 5823 5821 5818 5815 5813 5810 5808 5805 5803 5801 5798 5796 5793 5791 5788 5785 5783 5780 5777
5812 5815 5818 5819 5820 5821 5824 5825 5826 5827 5827 5827 5826 5826 5826 5825 5825 5825 5824 5823 5822 5820 5819 5817 5816 5814 5812 5810 5807 5805 5802 5800 5797 5795 5792 5790 5787 5785 5782 5780 5777 5774 5771 5769
5805 5808 5809 5811 5812 5814 5816 5818 5818 5819 5819 5819 5819 5819 5818 5818 5817 5817 5816 5814 5813 5812 5810 5809 5807 5805 5803 5801 5799 5796 5794 5792 5789 5787 5784 5781 5779 5776 5774 5771 5769 5766 5763 5760
5798 5801 5803 5804 5806 5807 5809 5809 5810 5811 5811 5811 5811 5810 5809 5809 5808 5808 5807 5806 5804 5803 5802 5800 5798 5796 5795 5792 5790 5788 5785 5783 5781 5778 5776 5773 5770 5768 5765 5763 5761 5758 5755 5752
5792 5794 5796 5797 5798 5800 5801 5802 5802 5802 5803 5803 5802 5801 5800 5800 5800 5799 5798 5797 5795 5794 5793 5791 5789 5788 5785 5783 5781 5779 5777 5775 5772 5769 5767 5764 5762 5759 5757 5754 5752 5750 5747 5744
5786 5787 5788 5790 5791 5792 5793 5794 5794 5794 5794 5794 5794 5793 5793 5792 5791 5790 5789 5788 5787 5786 5784 5782 5780 5779 5776 5774 5772 5770 5768 5766 5763 5761 5758 5756 5753 5750 5748 5746 5744 5741 5739 5736
5779 5780 5782 5782 5783 5784 5785 5786 5786 5786 5786 5786 5786 5785 5785 5784 5783 5782 5781 5780 5778 5777 5775 5774 5772 5770 5768 5766 5763 5761 5759 5757 5755 5752 5750 5747 5744 5742 5739 5737 5735 5733 5731 5728
5771 5773 5774 5775 5776 5777 5778 5778 5778 5778 5778 5777 5777 5777 5776 5775 5774 5774 5772 5771 5770 5769 5767 5765 5764 5762 5760 5758 5755 5752 5750 5748 5746 5744 5741 5739 5736 5733 5731 5729 5727 5725 5722 5720
5764 5766 5767 5768 5769 5769 5769 5769 5769 5769 5769 5769 5768 5768 5768 5767 5766 5764 5763 5762 5761 5760 5759 5757 5755 5753 5751 5749 5747 5744 5742 5740 5738 5736 5733 5731 5728 5726 5723 5721 5718 5716 5713 5711
5757 5758 5759 5760 5761 5761 5762 5762 5762 5761 5761 5761 5760 5760 5759 5758 5757 5756 5755 5754 5752 5751 5750 5748 5747 5745 5743 5741 5738 5736 5734 5732 5730 5727 5725 5723 5720 5718 5715 5712 5710 5707 5704 5701
5750 5751 5752 5752 5753 5753 5754 5754 5754 5754 5753 5753 5752 5751 5751 5750 5749 5747 5746 5745 5744 5743 5741 5740 5738 5736 5734 5732 5730 5728 5726 5723 5721 5719 5716 5714 5712 5709 5707 5704 5701 5698 5695 5692
5742 5743 5744 5744 5745 5745 5746 5746 5746 5746 5745 5745 5744 5743 5742 5741 5740 5739 5737 5737 5736 5734 5733 5732 5730 5728 5726 5724 5722 5720 5718 5715 5713 5711 5708 5706 5704 5701 5698 5696 5693 5690 5687 5683
5735 5736 5736 5737 5737 5738 5738 5738 5738 5738 5738 5737 5736 5736 5734 5733 5732 5731 5730 5729 5728 5727 5725 5724 5722 5720 5718 5716 5714 5712 5710 5708 5705 5703 5700 5698 5695 5692 5690 5687 5684 5681 5678 5675
5728 5729 5729 5729 5730 5730 5730 5730 5730 5730 5730 5729 5728 5728 5727 5725 5724 5723 5722 5721 5721 5719 5718 5716 5714 5712 5710 5708 5706 5704 5701 5699 5697 5694 5692 5689 5686 5684 5681 5678 5675 5672 5669 5666
5721 5722 5722 5723 5723 5723 5723 5722 5722 5722 5722 5721 5720 5719 5719 5717 5716 5715 5714 5714 5712 5711 5710 5708 5706 5704 5702 5700 5697 5695 5693 5690 5688 5685 5683 5680 5677 5675 5672 5669 5666 5663 5660 5656
5715 5716 5716 5717 5717 5716 5716 5716 5716 5715 5715 5714 5713 5712 5711 5710 5708 5707 5706 5706 5704 5703 5701 5700 5698 5696 5694 5692 5689 5687 5685 5682 5680 5677 5674 5672 5669 5666 5663 5660 5657 5654 5650 5647
5709 5710 5710 5709 5710 5710 5710 5710 5709 5708 5707 5706 5704 5703 5703 5702 5701 5700 5698 5698 5696 5695 5693 5691 5690 5688 5686 5684 5681 5679 5677 5674 5671 5669 5666 5663 5660 5657 5654 5651 5648 5645 5641 5638
Wind_Speed
21 18 18 19 18 18 17 18 17 17 18 16 16 16 16 16 17 17 17 17 17 17 17 18 18 18 19 19 20 21 21 21 22 22 22 22 22 22 22 22 22 23 22 22
22 20 19 19 17 18 17 18 17 19 20 17 17 18 18 18 19 18 19 19 19 19 20 20 20 20 21 21 22 22 22 22 22 23 23 23 22 22 23 23 23 24 23 23
23 21 21 20 18 17 18 18 18 20 21 21 22 21 20 20 21 20 20 21 21 22 22 22 22 22 23 23 23 23 24 23 22 22 23 23 23 24 24 24 24 24 24 24
24 24 24 24 20 18 19 20 21 22 23 22 22 24 23 22 22 22 22 23 23 24 24 24 24 24 24 24 24 24 23 23 23 23 24 25 25 26 25 25 25 25 24 25
24 23 24 23 21 20 21 22 22 24 23 22 23 25 25 25 24 24 24 25 25 26 26 25 26 26 26 25 25 24 24 25 25 26 26 27 27 27 27 26 26 26 26 26
24 24 26 22 21 22 22 24 25 26 25 25 26 26 27 26 25 25 25 26 26 26 26 27 27 27 27 27 27 26 26 26 27 28 29 29 29 30 29 29 28 27 27 27
25 26 27 23 23 23 24 25 25 26 26 27 28 28 28 28 26 25 26 27 26 26 26 27 28 29 29 27 27 27 28 28 29 30 30 30 30 30 31 30 29 29 28 28
27 28 27 25 25 27 26 26 26 27 27 26 27 28 28 27 26 26 27 28 28 28 28 29 29 30 29 28 28 29 29 30 30 31 31 31 31 31 31 31 30 30 29 29
27 29 29 29 28 27 28 28 27 28 29 28 28 28 29 28 27 27 28 29 30 30 31 31 31 31 31 30 30 31 31 31 31 32 32 32 32 31 30 30 31 31 30 30
28 28 28 29 29 28 28 28 28 28 28 28 28 29 31 31 30 29 29 30 31 32 32 32 32 32 32 32 32 32 32 32 32 33 33 32 32 31 31 31 31 31 31 31
30 29 28 28 29 29 29 28 29 29 29 29 30 31 31 31 31 30 31 31 31 32 32 32 32 32 33 33 33 33 33 32 33 33 34 34 33 33 32 32 32 31 32 33
30 30 31 30 30 30 30 30 30 30 30 31 32 31 32 32 31 32 32 32 32 32 32 32 32 33 33 33 33 33 33 33 33 33 34 34 34 34 33 33 32 32 33 32
30 30 30 30 30 30 30 30 31 31 31 32 32 33 33 33 32 32 32 32 32 32 32 32 33 33 33 33 33 34 33 33 33 33 33 33 33 33 33 33 32 32 33 33
30 30 29 30 30 30 31 31 32 32 32 32 32 32 32 32 31 31 31 32 32 32 32 32 33 33 33 33 33 33 33 33 33 32 33 33 33 33 33 33 33 32 32 32
30 31 30 29 29 30 30 30 30 30 31 31 30 30 30 31 31 31 31 31 31 31 31 32 32 33 33 33 33 33 33 33 32 33 33 33 33 33 33 32 32 32 32 31
29 29 29 30 29 28 29 30 30 29 29 29 29 30 30 31 31 31 31 32 31 31 31 31 31 31 31 32 32 32 33 32 32 33 33 33 33 33 33 32 31 31 31 31
28 27 28 29 30 29 29 30 30 29 29 29 29 29 29 29 30 30 31 31 31 30 30 30 31 30 31 31 31 31 31 32 32 32 33 32 32 32 31 31 31 30 30 31
28 28 29 29 29 29 29 29 30 29 29 29 29 29 29 29 30 30 30 30 30 30 29 30 30 30 30 31 30 31 31 31 31 31 31 31 31 31 31 31 31 31 32 32
29 29 29 29 29 29 29 28 29 29 28 28 28 28 29 30 30 29 29 30 30 30 29 29 29 30 30 31 31 31 31 31 31 31 31 31 31 31 31 31 31 32 31 31
28 28 29 29 29 29 29 29 28 28 27 28 28 28 29 30 30 30 30 30 30 30 29 29 29 29 30 31 30 31 31 31 30 30 30 30 30 31 31 31 31 32 32 32
28 28 29 29 29 28 28 28 28 27 27 27 28 28 29 29 30 30 30 29 29 29 28 28 28 28 29 29 29 30 30 31 30 29 29 29 30 30 31 31 31 31 32 33
27 27 28 28 27 26 26 26 26 26 27 27 27 28 28 29 29 29 29 29 28 28 27 27 27 27 28 28 28 28 29 29 29 29 29 29 30 30 30 30 31 31 32 32
25 25 26 27 26 25 25 25 25 26 26 27 27 27 28 27 28 28 28 28 27 27 26 27 27 27 27 27 28 28 29 29 30 30 31 31 30 30 30 30 31 31 32 33
24 24 24 24 25 24 24 24 25 25 25 26 27 27 26 26 26 26 27 27 26 27 27 27 27 28 28 28 29 29 30 30 30 30 30 30 30 30 30 30 30 31 32 32
22 23 22 22 22 22 22 22 23 24 24 25 26 26 26 26 25 25 25 26 26 26 26 26 27 27 28 28 28 29 29 29 29 29 28 29 29 30 30 31 31 32 32 32
21 22 22 22 22 22 21 22 22 24 24 24 25 25 25 25 25 25 25 25 25 26 27 27 27 27 27 27 27 27 27 27 27 28 29 29 30 31 31 31 32 32 32 33
20 21 21 21 22 22 22 22 23 23 24 24 25 25 24 25 25 25 25 25 26 26 26 26 26 26 26 26 26 26 27 28 28 29 29 30 30 30 30 31 31 32 32 33
Wind_Direction
226 229 230 233 232 235 237 241 247 254 254 257 264 267 270 274 279 283 285 288 289 290 293 296 298 299 300 301 303 303 304 305 306 307 309 310 310 311 311 309 306 305 303 299
226 227 232 237 236 233 237 238 244 253 258 260 268 268 269 271 275 280 283 287 287 288 290 293 295 296 297 299 301 302 302 303 304 305 306 309 309 310 310 307 305 303 300 299
231 233 233 239 241 241 239 239 243 253 257 264 269 269 268 271 274 279 282 284 285 286 288 292 294 296 297 298 300 301 300 300 302 304 305 305 308 309 308 306 305 304 302 300
233 234 235 234 237 241 245 247 247 253 257 261 267 271 271 273 275 276 279 283 284 286 287 290 292 295 298 299 298 299 299 299 301 302 303 304 305 306 306 305 303 303 300 298
235 237 244 242 241 242 246 247 246 251 256 260 262 267 270 272 274 277 279 281 284 285 288 291 293 295 296 298 299 299 299 298 300 301 302 301 301 303 303 302 300 300 298 295
236 236 240 243 247 247 249 251 247 251 254 259 263 266 270 274 277 278 279 280 283 285 287 290 292 294 295 296 298 298 297 298 299 301 302 301 300 300 300 299 298 297 295 293
235 240 243 242 247 249 249 251 255 256 258 261 264 267 270 273 275 276 279 281 284 285 288 290 292 294 294 294 296 297 297 298 299 301 301 301 301 300 299 298 296 295 294 294
233 236 242 242 245 247 249 251 254 257 259 262 266 267 268 272 274 277 280 282 284 285 287 289 290 292 294 295 295 296 296 297 297 298 300 301 300 300 299 297 296 295 296 296
234 237 240 245 247 248 250 254 257 258 260 264 267 269 270 273 277 278 279 281 282 284 286 288 288 290 293 294 294 295 295 294 294 296 298 299 299 299 298 298 297 298 297 297
235 239 244 246 247 248 251 255 258 259 261 264 268 270 271 273 275 276 277 280 282 284 285 286 288 288 292 292 293 295 295 294 294 295 296 297 299 301 300 299 300 299 297 297
239 242 245 248 247 250 253 257 260 263 264 266 268 270 273 277 277 278 279 281 282 283 284 285 287 288 290 292 293 294 294 294 294 295 296 297 298 299 299 299 299 298 298 297
240 243 245 248 250 252 256 258 261 264 267 269 271 272 274 276 277 279 280 281 282 282 283 285 287 288 289 291 292 293 293 294 293 294 296 297 297 298 298 298 299 299 299 299
241 244 247 250 254 257 259 261 262 265 268 270 271 274 275 276 278 279 280 281 281 282 283 284 286 287 288 290 291 292 292 292 292 294 295 296 297 297 297 297 297 298 298 299
241 245 249 252 254 257 260 262 263 265 267 269 271 272 273 275 276 278 279 280 282 282 283 284 286 287 288 289 291 291 292 292 293 293 294 295 295 296 296 296 296 298 298 297
243 246 250 255 258 259 261 263 265 267 269 271 272 272 273 274 275 277 279 281 282 283 284 285 285 286 287 289 289 291 292 292 292 292 294 295 295 295 295 296 296 297 298 296
245 249 253 255 257 259 262 265 267 269 271 272 272 272 275 276 277 278 280 281 282 282 283 285 287 288 289 289 289 289 290 291 292 293 294 295 296 296 296 296 297 298 298 298
247 249 252 255 259 262 264 266 269 271 272 272 274 275 275 275 276 277 279 280 282 283 285 286 288 290 291 291 291 292 292 292 292 292 293 295 297 297 297 297 298 298 298 300
249 251 253 256 260 263 265 266 268 270 271 272 272 273 274 276 278 279 279 280 283 284 286 287 287 288 289 291 291 291 291 292 293 295 295 295 298 299 297 296 296 297 298 299
250 253 256 259 262 263 265 267 269 269 270 271 273 274 275 279 281 280 280 280 281 282 283 286 287 287 288 290 291 290 291 291 291 292 293 295 296 298 298 297 297 297 298 299
251 254 257 260 263 264 267 270 271 271 271 272 273 276 277 279 280 280 279 279 280 281 283 285 287 288 289 289 290 291 291 291 291 292 294 296 296 297 297 299 298 297 298 298
252 255 258 260 262 264 267 269 270 270 271 273 275 276 278 278 278 278 278 278 280 281 283 285 288 290 291 291 291 292 292 292 291 292 295 296 298 299 299 298 299 300 300 299
253 255 258 261 263 265 267 268 268 269 271 273 276 279 280 280 280 279 279 279 280 281 284 287 289 291 292 292 293 294 294 293 292 294 295 295 296 297 299 299 300 301 303 303
255 258 260 262 263 263 264 265 268 269 271 273 276 279 280 281 281 280 278 278 279 282 287 289 290 291 291 293 293 292 293 293 292 293 295 295 295 296 297 298 299 300 301 303
256 259 261 262 263 263 265 267 269 271 272 275 278 279 280 282 283 283 282 282 282 284 287 288 289 291 292 293 293 292 292 292 293 294 295 296 296 297 298 299 300 301 302 303
255 257 260 264 264 264 264 265 268 270 272 275 277 279 280 282 283 283 283 285 286 285 285 287 289 291 293 295 295 294 293 293 294 294 296 297 298 298 298 299 300 301 301 302
257 260 263 264 265 267 268 269 272 274 276 277 278 279 279 280 281 282 282 284 285 286 288 289 290 292 294 295 295 295 295 295 296 297 297 298 299 299 299 300 300 300 301 302
260 262 265 265 265 266 269 271 274 276 277 278 281 281 282 282 283 284 284 285 286 288 289 291 291 292 293 294 295 296 296 297 298 298 299 300 300 300 301 302 302 303 303 303